Regional Weather Roundup
Issued by NWS Boston, MA

Home | Current Version | Previous Version | Text Only | Print | Product List | Glossary On
Versions: 1 2 3 4 5 6 7 8 9 10 11 12 13 14 15 16 17 18 19 20 21 22 23 24 25 26 27 28 29 30 31 32 33 34 35 36 37 38 39 40 41 42 43 44 45 46 47 48 49 50
000
ASUS41 KBOX 222010
RWRBOX

REGIONAL WEATHER ROUNDUP
NATIONAL WEATHER SERVICE TAUNTON MA
400 PM EDT FRI MAY 22 2015

NOTE:  "FAIR" INDICATES FEW OR NO CLOUDS BELOW 12,000 FEET WITH NO
SIGNIFICANT WEATHER AND/OR OBSTRUCTIONS TO VISIBILITY.  THE FOLLOWING
OBSERVATION LOCATIONS DO NOT REPORT PRESENT WEATHER...PROVINCETOWN...
SMITHFIELD...BLOCK ISLAND...KEENE...AND OXFORD.

MAZALL-222100-
EASTERN MASSACHUSETTS

CITY           SKY/WX    TMP DP  RH WIND       PRES   REMARKS
BOSTON         MOSUNNY   73  24  16 W18G28    29.80R
BEVERLY        CLOUDY    70  31  23 NW14G25   29.78R
LAWRENCE       CLOUDY    69  34  27 NW14G20   29.81R
BEDFORD        MOSUNNY   70  31  23 NW15G23   29.80R
BLUE HILL        N/A     71  31  22 W16G28    29.80R
NORWOOD        PTSUNNY   73  32  22 W17       29.81R
MARSHFIELD     MOSUNNY   73  37  27 W10G21    29.81S
PLYMOUTH       MOSUNNY   74  33  22 W21G30    29.81R
TAUNTON        PTSUNNY   75  35  23 W13G21    29.81R
NEW BEDFORD    MOSUNNY   71  38  29 W17G26    29.82R
$$

MAZALL-222100-
CAPE COD AND THE ISLANDS

CITY           SKY/WX    TMP DP  RH WIND       PRES   REMARKS
FALMOUTH       MOSUNNY   66  45  45 SW26G33   29.82S
HYANNIS        MOSUNNY   64  50  60 S14G23    29.82S
CHATHAM        SUNNY     60  51  72 SW13G21   29.86R
PROVINCETOWN   SUNNY     66  48  52 S14G21    29.82S
NANTUCKET      SUNNY     59  51  75 SW13      29.87S
MARTHAS VNYRD  SUNNY     68  45  43 SW17G31   29.85R
$$

MAZALL-222100-
CENTRAL AND WESTERN MASSACHUSETTS

CITY           SKY/WX    TMP DP  RH WIND       PRES   REMARKS
WORCESTER      SUNNY     67  27  22 W17G32    29.86R
FITCHBURG      MOSUNNY   70  32  24 W22G28    29.84R
ORANGE         MOSUNNY   69  27  20 W18G28    29.86R
SPRINGFIELD    MOSUNNY   69  30  23 W22G37    29.87R
WESTFIELD      NOT AVBL
NORTH ADAMS    MOSUNNY   64  27  24 W17G25    29.91R
PITTSFIELD     LGT RAIN  62  26  25 NW18G26   29.92R
$$

RIZALL-222100-
RHODE ISLAND

CITY           SKY/WX    TMP DP  RH WIND       PRES   REMARKS
PROVIDENCE     PTSUNNY   74  35  24 NW14G24   29.83S
NEWPORT        MOSUNNY   67  44  43 SW13G21   29.84R
BLOCK ISLAND   SUNNY     64  46  52 SW18G25   29.89S
SMITHFIELD     MOSUNNY   68  30  24 W16       29.84R
WESTERLY       PTSUNNY   64  44  48 SW13G21   29.88R
$$

CTZALL-222100-
CONNECTICUT

CITY           SKY/WX    TMP DP  RH WIND       PRES   REMARKS
BRADLEY INTL   MOSUNNY   73  31  21 NW23G30   29.87R
HARTFORD       MOSUNNY   71  34  25 NW9G22    29.87R
BRIDGEPORT     MOSUNNY   75  37  25 NW18G29   29.89R
DANBURY        MOSUNNY   69  34  27 NW17G26   29.92R
GROTON         CLOUDY    65  44  46 SW13G23   29.87R
NEW HAVEN      PTSUNNY   71  39  31 NW13G24   29.89R
CHESTER        FAIR      70  36  28 NW13G20   29.89R
MERIDEN        MOSUNNY   74  33  22 NW15G23   29.88R
WILLIMANTIC    MOSUNNY   70  32  24 W10G25    29.86R
OXFORD         MOSUNNY   70  36  28 W14G25    29.92R
$$

MEZ002-015-021-024-NHZ003-005-008-011-012-014-VTZ005-008-222100-
NORTHERN NEW ENGLAND

CITY           SKY/WX    TMP DP  RH WIND       PRES   REMARKS
PORTLAND ME    PTSUNNY   62  43  49 S7        29.78R
BANGOR ME      TSTM      54  48  80 W8        29.80R
CONCORD NH     MOSUNNY   71  34  25 NW16G24   29.82R
MANCHESTER NH  PTSUNNY   69  31  24 W13G24    29.80R
NASHUA NH      PTSUNNY   70  34  26 NW16G24   29.82R
PORTSMOUTH NH  PTSUNNY   72  32  22 W14G29    29.77R
JAFFREY NH     MOSUNNY   66  30  26 W13G20    29.86R
KEENE NH       MOSUNNY  N/A N/A N/A NW12G22   29.86R
BURLINGTON VT  PTSUNNY   58  26  29 NW18      29.95R
MT. WASHINGTON PTSUNNY   27  23  86 W52G59      N/A  WCI   6
$$

NYZ052-076-222100-
EASTERN NEW YORK

CITY           SKY/WX    TMP DP  RH WIND       PRES   REMARKS
ALBANY         PTSUNNY   67  30  25 W20G29    29.94R
NEW YORK CITY  LGT RAIN  67  42  40 W16G25    29.93R
$$

ANZALL-222100-
MARINE OBSERVATIONS

STATION/POSITION TIME  TEMP    WIND        PRES    VSBY  WAVE
                       AIR SEA DIR/SP/G                  HT/PER
                 (UTC) (F)     (DEG/KT/KT) (MB)    (MI)  (FT/S)
BOSTON BUOY      1950   58 54  170/ 12/ 17 1089.0R         1/ 3
BUZZARDS BAY     1900          230/ 23/ 25   N/A
NANTUCKET SOUND  1950   58 56  220/ 17/ 19   N/A           2/ 3
MASS BAY-STELLWA 1904   55 54  150/ 12/ 14   N/A    1 7/8  2/ 3
ISLE OF SHOALS   1900   55     160/ 18/ 21 1074.0R
S OF BLOCK IS    1908      54                N/A           3/ 4
$$

......................KEY.........................
  SKY/WX - SKY CONDITION/PRESENT WEATHER
  TMP    - TEMPERATURE IN FAHRENHEIT
  DWPT   - DEWPOINT IN FAHRENHEIT
  RH     - RELATIVE HUMIDITY IN PERCENT
  WIND   - DIRECTION AND SPEED IN MPH
  PRES   - MEAN SEA LEVEL PRESSURE IN INCHES OF HG
  WCI    - WIND CHILL INDEX
  VSB    - VISIBILITY IN MILES
  HX     - HEAT INDEX
  TC     - TEMPERATURE IN CELSIUS
  VRB    - VARIABLE WIND DIRECTION
  N/A    - NOT AVAILABLE


USA.gov is the U.S. government's official web portal to all federal, state and local government web resources and services.